FW6662 Weather Reports


time (UTC)temp
C
wind
direction
speed
KPH
gust
KPH
rain 1hr
cm
rain 24hr
cm
rain mn
cm
humidity
%
barometer
mb
20260504110503 6 169 4.8 11.3 0.00 0.00 0.00 68 1013.2
20260504100503 6 171 4.8 14.5 0.00 0.00 0.00 66 1012.9
20260504082003 6 182 4.8 9.7 0.00 0.00 0.00 66 1013.3
20260504081503 6 171 1.6 9.7 0.00 0.00 0.00 65 1013.4
20260504081003 6 170 1.6 11.3 0.00 0.00 0.00 66 1013.3
20260504080503 6 172 1.6 11.3 0.00 0.00 0.00 66 1013.3
20260504050505 7 219 1.6 6.4 0.00 0.00 0.00 62 1012.9
20260504050005 7 221 1.6 6.4 0.00 0.00 0.00 61 1013.0
20260504045505 7 225 1.6 4.8 0.00 0.00 0.00 61 1013.0
20260504045005 7 225 0.0 4.8 0.00 0.00 0.00 60 1013.0
20260504044505 7 202 0.0 1.6 0.00 0.00 0.00 59 1013.0
20260504044005 7 0 0.0 0.0 0.00 0.00 0.00 60 1012.9
20260504043505 7 202 0.0 4.8 0.00 0.00 0.00 60 1012.9
20260504043005 7 202 0.0 4.8 0.00 0.00 0.00 61 1013.0
20260504042526 7 0 0.0 0.0 0.00 0.00 0.00 63 1012.9
20260504042005 7 0 0.0 0.0 0.00 0.00 0.00 63 1012.9
20260504041505 7 0 0.0 0.0 0.00 0.00 0.00 60 1012.8
20260504041005 7 0 0.0 0.0 0.00 0.00 0.00 64 1012.8
20260504040505 7 0 0.0 0.0 0.00 0.00 0.00 61 1012.8
20260504040005 7 0 0.0 0.0 0.00 0.00 0.00 60 1012.8
20260504035505 7 0 0.0 0.0 0.00 0.00 0.00 59 1012.8
20260504035005 7 0 0.0 0.0 0.00 0.00 0.00 60 1012.8
20260504034505 7 0 0.0 0.0 0.00 0.00 0.00 61 1012.8
20260504034005 7 0 0.0 0.0 0.00 0.00 0.00 59 1012.8
20260504033505 7 0 0.0 0.0 0.00 0.00 0.00 60 1012.7
20260504033026 7 0 0.0 0.0 0.00 0.00 0.00 61 1012.7
20260504032504 7 0 0.0 0.0 0.00 0.00 0.00 60 1012.8
20260504032005 7 0 0.0 0.0 0.00 0.00 0.00 59 1012.7
20260504031525 7 0 0.0 0.0 0.00 0.00 0.00 58 1012.7
20260504031005 8 0 0.0 0.0 0.00 0.00 0.00 58 1012.7
20260504030505 8 0 0.0 0.0 0.00 0.00 0.00 61 1012.7
20260504030005 8 0 0.0 0.0 0.00 0.00 0.00 61 1012.8
20260504025505 8 0 0.0 0.0 0.00 0.00 0.00 58 1012.8
20260504025005 8 0 0.0 0.0 0.00 0.00 0.00 58 1012.8
20260504024504 8 0 0.0 0.0 0.00 0.00 0.00 59 1012.7
20260504024005 8 0 0.0 0.0 0.00 0.00 0.00 58 1012.8
20260504023505 8 0 0.0 0.0 0.00 0.00 0.00 58 1012.8
20260504023005 8 0 0.0 0.0 0.00 0.00 0.00 57 1012.7
20260504022505 8 0 0.0 0.0 0.00 0.00 0.00 55 1012.7
20260504022026 8 0 0.0 0.0 0.00 0.00 0.00 54 1012.7
20260504021505 8 0 0.0 0.0 0.00 0.00 0.00 55 1012.7
20260504021026 9 0 0.0 0.0 0.00 0.00 0.00 55 1012.7
20260504020504 9 0 0.0 0.0 0.00 0.00 0.00 56 1012.8
20260504020005 9 0 0.0 0.0 0.00 0.00 0.00 56 1012.8
20260504015525 9 0 0.0 0.0 0.00 0.00 0.00 54 1012.7
20260504015004 9 279 0.0 1.6 0.00 0.00 0.00 55 1012.7
20260504014525 9 279 0.0 1.6 0.00 0.00 0.00 54 1012.7
20260504014026 9 0 0.0 0.0 0.00 0.00 0.00 54 1012.5
20260504013525 9 279 0.0 1.6 0.00 0.00 0.00 54 1012.5
20260504013004 10 279 0.0 1.6 0.00 0.00 0.00 54 1012.5
20260504012505 10 0 0.0 0.0 0.00 0.00 0.00 52 1012.4
20260504012005 10 279 0.0 1.6 0.00 0.00 0.00 53 1012.4
20260504011504 10 279 0.0 1.6 0.00 0.00 0.00 53 1012.3
20260504011005 10 0 0.0 0.0 0.00 0.00 0.00 53 1012.3
20260504010527 10 0 0.0 0.0 0.00 0.00 0.00 52 1012.3
20260504010004 10 0 0.0 0.0 0.00 0.00 0.00 52 1012.1
20260504005504 10 0 0.0 0.0 0.00 0.00 0.00 52 1012.0
20260504005004 11 0 0.0 0.0 0.00 0.00 0.00 52 1012.1
20260504004504 11 279 0.0 1.6 0.00 0.00 0.00 51 1012.1
20260504004005 11 279 0.0 1.6 0.00 0.00 0.00 49 1012.0
20260504003504 11 0 0.0 0.0 0.00 0.00 0.00 49 1012.0
20260504003004 11 279 0.0 1.6 0.00 0.00 0.00 49 1012.0
20260504002504 11 279 0.0 4.8 0.00 0.00 0.00 50 1011.9
20260504002025 11 279 0.0 4.8 0.00 0.00 0.00 49 1011.9
20260504001504 11 279 0.0 1.6 0.00 0.00 0.00 48 1011.8
20260504001005 11 279 0.0 1.6 0.00 0.00 0.00 50 1011.7
20260504000504 12 280 0.0 6.4 0.00 0.00 0.00 50 1011.6
20260504000004 12 287 1.6 6.4 0.00 0.00 0.00 50 1011.7
20260503235504 12 291 0.0 6.4 0.00 0.00 0.00 48 1011.7
20260503235004 12 0 0.0 0.0 0.00 0.00 0.00 52 1011.5
20260503234504 12 0 0.0 0.0 0.00 0.00 0.00 52 1011.5
20260503234052 12 0 0.0 0.0 0.00 0.00 0.00 53 1011.5
20260503233504 12 270 0.0 1.6 0.00 0.00 0.00 51 1011.5
20260503233004 12 268 0.0 4.8 0.00 0.00 0.00 54 1011.5
20260503232504 12 266 0.0 4.8 0.00 0.00 0.00 51 1011.5
20260503232004 12 264 0.0 4.8 0.00 0.00 0.00 51 1011.5
20260503231505 12 269 0.0 4.8 0.00 0.00 0.00 48 1011.5
20260503231004 12 268 1.6 4.8 0.00 0.00 0.00 51 1011.5
20260503230526 12 286 1.6 6.4 0.00 0.00 0.00 46 1011.4
20260503230004 12 290 1.6 6.4 0.00 0.00 0.00 48 1011.5
20260503225504 12 277 4.8 11.3 0.00 0.00 0.00 50 1011.4
20260503225004 13 285 4.8 14.5 0.00 0.00 0.00 50 1011.5
20260503224525 13 298 4.8 14.5 0.00 0.00 0.00 50 1011.4
20260503224004 13 305 1.6 14.5 0.00 0.00 0.00 49 1011.5
20260503223504 13 296 4.8 11.3 0.00 0.00 0.00 46 1011.4
20260503223004 13 279 4.8 16.1 0.00 0.00 0.00 46 1011.5
20260503222504 13 268 4.8 16.1 0.00 0.00 0.00 46 1011.4
20260503222026 13 257 4.8 14.5 0.00 0.00 0.00 44 1011.5
20260503221504 13 250 4.8 14.5 0.00 0.00 0.00 45 1011.4
20260503221004 13 277 6.4 19.3 0.00 0.00 0.00 43 1011.5
20260503220504 13 280 6.4 19.3 0.00 0.00 0.00 43 1011.4
20260503220004 13 285 4.8 16.1 0.00 0.00 0.00 43 1011.5
20260503215525 13 294 4.8 16.1 0.00 0.00 0.00 47 1011.6
20260503215004 13 278 4.8 11.3 0.00 0.00 0.00 45 1011.5
20260503214504 13 262 4.8 14.5 0.00 0.00 0.00 44 1011.4
20260503214004 13 288 4.8 19.3 0.00 0.00 0.00 42 1011.4
20260503213525 13 297 4.8 27.4 0.00 0.00 0.00 42 1011.5
20260503213004 13 264 6.4 27.4 0.00 0.00 0.00 44 1011.4
20260503212504 14 257 4.8 20.9 0.00 0.00 0.00 41 1011.4
20260503212004 14 259 4.8 11.3 0.00 0.00 0.00 44 1011.3
20260503211504 14 235 1.6 14.5 0.00 0.00 0.00 43 1011.4
20260503211004 14 283 1.6 16.1 0.00 0.00 0.00 40 1011.4
20260503210504 14 274 4.8 16.1 0.00 0.00 0.00 40 1011.4
20260503210005 14 233 4.8 14.5 0.00 0.00 0.00 39 1011.4
20260503205504 14 272 4.8 19.3 0.00 0.00 0.00 43 1011.4
20260503205004 15 287 4.8 19.3 0.00 0.00 0.00 39 1011.4
20260503204504 15 249 4.8 16.1 0.00 0.00 0.00 39 1011.3
20260503204004 14 229 1.6 9.7 0.00 0.00 0.00 40 1011.3
20260503203525 14 264 4.8 14.5 0.00 0.00 0.00 42 1011.3
20260503203025 14 269 4.8 14.5 0.00 0.00 0.00 41 1011.4
20260503202504 14 278 4.8 11.3 0.00 0.00 0.00 38 1011.4
20260503202004 15 285 4.8 16.1 0.00 0.00 0.00 38 1011.4
20260503201504 15 287 4.8 16.1 0.00 0.00 0.00 39 1011.4
20260503201004 15 263 4.8 14.5 0.00 0.00 0.00 37 1011.4
20260503200504 15 275 4.8 14.5 0.00 0.00 0.00 40 1011.5
20260503200004 15 318 4.8 14.5 0.00 0.00 0.00 36 1011.5
20260503195504 15 273 4.8 11.3 0.00 0.00 0.00 35 1011.5
20260503195004 15 254 1.6 9.7 0.00 0.00 0.00 41 1011.6
20260503194504 15 281 4.8 16.1 0.00 0.00 0.00 42 1011.7
20260503194004 15 250 6.4 16.1 0.00 0.00 0.00 35 1011.8
20260503193504 15 262 9.7 22.5 0.00 0.00 0.00 37 1011.9
20260503193004 15 285 9.7 22.5 0.00 0.00 0.00 34 1011.8
20260503192504 15 279 9.7 22.5 0.00 0.00 0.00 36 1011.9
20260503192025 15 272 9.7 37.0 0.00 0.00 0.00 39 1011.9
20260503191504 15 268 6.4 37.0 0.00 0.00 0.00 37 1012.0
20260503191025 14 275 6.4 22.5 0.00 0.00 0.00 39 1012.0
20260503190504 14 267 6.4 25.7 0.00 0.00 0.00 38 1012.1
20260503190004 14 239 6.4 25.7 0.00 0.00 0.00 41 1012.3
20260503185505 15 238 6.4 25.7 0.00 0.00 0.00 36 1012.1
20260503185026 14 233 6.4 20.9 0.00 0.00 0.00 38 1012.5
20260503184504 14 227 4.8 16.1 0.00 0.00 0.00 41 1012.5
20260503184025 14 267 4.8 20.9 0.00 0.00 0.00 43 1012.6
20260503183504 14 253 4.8 20.9 0.00 0.00 0.00 43 1012.7
20260503183004 14 236 4.8 11.3 0.00 0.00 0.00 42 1012.7
20260503182505 13 285 4.8 25.7 0.00 0.00 0.00 44 1012.7
20260503182005 13 272 9.7 32.2 0.00 0.00 0.00 43 1012.9
20260503181505 13 279 9.7 32.2 0.00 0.00 0.00 41 1012.8
20260503181004 13 309 6.4 19.3 0.00 0.00 0.00 40 1013.1
20260503180525 13 304 4.8 14.5 0.00 0.00 0.00 44 1013.0
20260503180004 12 293 1.6 14.5 0.00 0.00 0.00 41 1013.0
20260503175504 12 253 1.6 6.4 0.00 0.00 0.00 40 1013.2
20260503175004 12 223 1.6 11.3 0.00 0.00 0.00 45 1013.2
20260503174525 12 244 4.8 14.5 0.00 0.00 0.00 40 1013.3
20260503174004 12 249 6.4 16.1 0.00 0.00 0.00 44 1013.3
20260503173504 11 243 6.4 22.5 0.00 0.00 0.00 48 1013.5
20260503173004 11 243 6.4 22.5 0.00 0.00 0.00 47 1013.5
20260503172504 12 246 6.4 19.3 0.00 0.00 0.00 44 1013.4
20260503172004 12 251 6.4 19.3 0.00 0.00 0.00 42 1013.5
20260503171504 12 249 6.4 19.3 0.00 0.00 0.00 42 1013.5
20260503171004 11 260 6.4 22.5 0.00 0.00 0.00 51 1013.6
20260503170504 11 254 6.4 22.5 0.00 0.00 0.00 42 1013.7
20260503150504 8 273 9.7 30.6 0.00 0.00 0.00 47 1014.2
20260503131004 5 259 4.8 19.3 0.00 0.00 0.00 72 1014.6
20260503130504 5 263 6.4 19.3 0.00 0.00 0.00 69 1014.7